Greenville, ME

10:50 PM EST on February 25, 2018 (GMT -0500)
Greenville

Weather History for KGNR - October, 2012

Change the Weather History Date:

Sunday, October 14, 2012

  Actual Average (KMLT) Record (KMLT)
Temperature  
Mean Temperature 34 °F -  
Max Temperature 39 °F 55 °F 83 °F (1930)
Min Temperature 30 °F 37 °F 18 °F (1937)
Degree Days  
Heating Degree Days 30    
Moisture  
Dew Point 33 °F    
Average Humidity 94    
Maximum Humidity 100    
Minimum Humidity 61    
Precipitation  
Precipitation 0.29 in - - ()
Sea Level Pressure  
Sea Level Pressure 30.08 in    
Wind  
Wind Speed 3 mph (SE)    
Max Wind Speed 7 mph    
Max Gust Speed -    
Averages and records for this station are not official NWS values.
T = Trace of Precipitation, MM = Missing Value Source: NWS Daily Summary

Daily Weather History Graph

Daily Weather History Graph

Search for Another Location

Airport or City:

Trip Planner

Search our weather history database for the weather conditions in past years. The results will help you decide how hot, cold, wet, or windy it might be!

Date:

Astronomy

Oct. 14, 2012 Rise Set
Actual Time 6:53 AM EDT 5:53 PM EDT
Civil Twilight 6:24 AM EDT 6:23 PM EDT
Nautical Twilight 5:49 AM EDT 6:57 PM EDT
Astronomical Twilight 5:15 AM EDT 7:32 PM EDT
Moon 5:48 AM EDT (10/14) 5:11 PM EDT (10/14)
Length of Visible Light 11h 59m
Length of Day
10h 59m
Waning Crescent, 1% of the Moon is Illuminated
Oct 14
Waning Crescent
Oct 15
New
Oct 21
First Quarter
Oct 29
Full
Nov 6
Last Quarter

Hourly Weather History & Observations

Time (EDT) Temp. Windchill Dew Point Humidity Pressure Visibility Wind Dir Wind Speed Gust Speed Precip Events Conditions
12:56 AM 35.1 °F 31.0 °F 23.0 °F 61% 30.24 in - South 4.6 mph - N/A   Unknown
1:56 AM 35.1 °F - 25.0 °F 67% 30.25 in - Calm Calm - N/A   Unknown
2:56 AM 36.0 °F 33.3 °F 24.1 °F 62% 30.23 in - Variable 3.5 mph - N/A   Unknown
3:56 AM 33.1 °F 30.0 °F 30.9 °F 92% 30.21 in - South 3.5 mph - N/A   Unknown
4:56 AM 30.9 °F 26.2 °F 30.9 °F 100% 30.17 in - Variable 4.6 mph - 0.03 in   Unknown
5:56 AM 30.9 °F 26.2 °F 30.9 °F 100% 30.14 in - Variable 4.6 mph - 0.06 in   Unknown
6:56 AM 30.9 °F 26.2 °F 30.9 °F 100% 30.14 in - Variable 4.6 mph - 0.06 in   Unknown
7:56 AM 30.9 °F 26.2 °F 30.9 °F 100% 30.14 in - Variable 4.6 mph - 0.06 in   Unknown
8:56 AM 30.9 °F 26.2 °F 30.9 °F 100% 30.13 in - Variable 4.6 mph - 0.04 in   Unknown
9:56 AM 32.0 °F 27.5 °F 32.0 °F 100% 30.11 in - Variable 4.6 mph - N/A   Unknown
10:56 AM 32.0 °F 28.7 °F 32.0 °F 100% 30.10 in - Variable 3.5 mph - N/A   Unknown
11:56 AM 33.1 °F - 33.1 °F 100% 30.09 in - Calm Calm - N/A   Unknown
12:56 PM 35.1 °F - 35.1 °F 100% 30.06 in - Calm Calm - N/A   Unknown
1:56 PM 36.0 °F - 35.1 °F 97% 30.04 in - Calm Calm - N/A   Unknown
2:56 PM 37.9 °F - 36.0 °F 93% 30.02 in - Calm Calm - N/A   Unknown
3:56 PM 39.0 °F - 37.0 °F 93% 30.02 in - Calm Calm - N/A   Unknown
4:56 PM 39.0 °F - 37.9 °F 96% 30.01 in - Calm Calm - N/A   Unknown
5:56 PM 39.0 °F - 37.9 °F 96% 30.01 in - Calm Calm - N/A   Unknown
6:56 PM 37.9 °F 35.5 °F 37.9 °F 100% 30.01 in - SE 3.5 mph - 0.02 in   Unknown
7:56 PM 37.0 °F 34.5 °F 37.0 °F 100% 29.99 in - Variable 3.5 mph - 0.02 in   Unknown
8:56 PM 37.0 °F 34.5 °F 37.0 °F 100% 30.00 in - ESE 3.5 mph - N/A   Unknown
9:56 PM 37.0 °F 31.6 °F 37.0 °F 100% 29.97 in - ESE 6.9 mph - N/A   Unknown
10:56 PM 37.0 °F 33.3 °F 37.0 °F 100% 29.96 in - Variable 4.6 mph - N/A   Unknown
11:56 PM 37.9 °F 34.4 °F 37.9 °F 100% 29.92 in - Variable 4.6 mph - N/A   Unknown